QPF
0.09 0.11 0.12 0.08 0.07 0.07 0.07 0.04 0.02 0.00 0.00 0.00 0.00 0.00 0.00 0.00 0.00 0.00 0.00 0.00 0.00 0.00 0.00 0.01 0.01 0.03 0.04 0.05 0.07 0.09 0.10 0.10 0.09 0.07 0.05 0.04 0.03 0.03 0.02 0.02 0.01 0.01 0.00 0.00
0.08 0.09 0.07 0.05 0.06 0.05 0.07 0.06 0.03 0.01 0.01 0.00 0.00 0.00 0.00 0.00 0.00 0.00 0.00 0.00 0.00 0.00 0.00 0.01 0.01 0.02 0.04 0.05 0.05 0.06 0.07 0.09 0.08 0.08 0.09 0.07 0.05 0.04 0.03 0.03 0.02 0.02 0.01 0.01
0.05 0.06 0.05 0.05 0.06 0.06 0.05 0.05 0.04 0.02 0.01 0.01 0.00 0.00 0.00 0.00 0.00 0.00 0.00 0.00 0.00 0.00 0.00 0.01 0.01 0.02 0.03 0.03 0.04 0.04 0.05 0.07 0.07 0.09 0.10 0.10 0.08 0.05 0.04 0.03 0.02 0.02 0.02 0.01
0.03 0.04 0.05 0.04 0.05 0.06 0.04 0.03 0.04 0.04 0.03 0.02 0.01 0.00 0.00 0.00 0.00 0.00 0.00 0.00 0.00 0.00 0.00 0.00 0.00 0.01 0.01 0.02 0.03 0.03 0.04 0.05 0.05 0.06 0.06 0.06 0.06 0.04 0.04 0.04 0.04 0.03 0.02 0.02
0.02 0.04 0.04 0.04 0.03 0.04 0.05 0.02 0.03 0.03 0.03 0.02 0.01 0.00 0.00 0.00 0.00 0.00 0.00 0.00 0.00 0.00 0.00 0.00 0.00 0.00 0.00 0.01 0.02 0.02 0.02 0.02 0.03 0.03 0.04 0.04 0.03 0.03 0.03 0.03 0.02 0.02 0.02 0.02
0.01 0.04 0.04 0.03 0.03 0.03 0.05 0.04 0.04 0.04 0.04 0.03 0.01 0.00 0.00 0.00 0.00 0.00 0.00 0.00 0.00 0.00 0.00 0.00 0.00 0.00 0.00 0.00 0.01 0.01 0.01 0.01 0.01 0.02 0.03 0.03 0.02 0.02 0.02 0.02 0.01 0.01 0.02 0.02
0.02 0.03 0.04 0.03 0.04 0.06 0.07 0.07 0.10 0.10 0.06 0.01 0.00 0.00 0.00 0.00 0.00 0.00 0.00 0.00 0.00 0.00 0.00 0.00 0.00 0.00 0.00 0.00 0.00 0.00 0.00 0.01 0.01 0.01 0.01 0.01 0.01 0.02 0.02 0.02 0.02 0.01 0.01 0.01
0.02 0.04 0.03 0.03 0.05 0.07 0.05 0.05 0.05 0.05 0.02 0.00 0.00 0.00 0.00 0.00 0.00 0.00 0.00 0.00 0.00 0.00 0.00 0.00 0.00 0.00 0.00 0.00 0.00 0.00 0.00 0.00 0.00 0.01 0.01 0.01 0.01 0.01 0.01 0.01 0.01 0.01 0.01 0.01
0.03 0.04 0.03 0.02 0.03 0.05 0.05 0.04 0.03 0.03 0.02 0.01 0.00 0.00 0.00 0.00 0.00 0.00 0.00 0.00 0.00 0.00 0.00 0.00 0.00 0.00 0.00 0.00 0.00 0.00 0.00 0.00 0.00 0.00 0.01 0.01 0.01 0.01 0.01 0.01 0.01 0.01 0.01 0.01
0.03 0.03 0.03 0.03 0.03 0.05 0.05 0.03 0.02 0.02 0.02 0.01 0.00 0.00 0.00 0.00 0.00 0.00 0.00 0.00 0.00 0.00 0.00 0.00 0.00 0.00 0.00 0.00 0.00 0.00 0.00 0.00 0.00 0.00 0.00 0.00 0.00 0.01 0.01 0.01 0.01 0.00 0.00 0.00
0.04 0.04 0.03 0.03 0.04 0.03 0.03 0.03 0.02 0.02 0.02 0.01 0.00 0.00 0.00 0.00 0.00 0.00 0.00 0.00 0.00 0.00 0.00 0.00 0.00 0.00 0.00 0.00 0.00 0.00 0.00 0.00 0.00 0.00 0.00 0.01 0.01 0.00 0.00 0.00 0.00 0.00 0.00 0.00
0.04 0.05 0.04 0.03 0.03 0.02 0.02 0.02 0.02 0.03 0.03 0.01 0.00 0.00 0.00 0.00 0.00 0.00 0.00 0.00 0.00 0.00 0.00 0.00 0.00 0.00 0.00 0.00 0.00 0.00 0.00 0.00 0.00 0.00 0.00 0.00 0.00 0.00 0.00 0.00 0.00 0.00 0.00 0.00
0.03 0.04 0.04 0.04 0.04 0.04 0.02 0.02 0.01 0.02 0.03 0.01 0.00 0.00 0.00 0.00 0.00 0.00 0.00 0.00 0.00 0.00 0.00 0.00 0.00 0.00 0.00 0.00 0.00 0.00 0.00 0.00 0.00 0.00 0.00 0.00 0.00 0.00 0.00 0.00 0.00 0.00 0.00 0.00
0.08 0.04 0.02 0.03 0.02 0.02 0.01 0.01 0.02 0.03 0.03 0.01 0.00 0.00 0.00 0.00 0.00 0.00 0.00 0.00 0.00 0.00 0.00 0.00 0.00 0.00 0.00 0.00 0.00 0.00 0.00 0.00 0.00 0.00 0.00 0.00 0.00 0.00 0.00 0.00 0.00 0.00 0.00 0.00
0.11 0.07 0.01 0.01 0.01 0.01 0.01 0.00 0.01 0.01 0.01 0.00 0.00 0.00 0.00 0.00 0.00 0.00 0.00 0.00 0.00 0.00 0.00 0.00 0.00 0.00 0.00 0.00 0.00 0.00 0.00 0.00 0.00 0.00 0.00 0.00 0.00 0.00 0.00 0.00 0.00 0.00 0.00 0.00
0.07 0.07 0.03 0.02 0.01 0.01 0.01 0.00 0.00 0.00 0.00 0.00 0.00 0.00 0.00 0.00 0.00 0.00 0.00 0.00 0.00 0.00 0.00 0.00 0.00 0.00 0.00 0.00 0.00 0.00 0.00 0.00 0.00 0.00 0.00 0.00 0.00 0.00 0.00 0.00 0.00 0.00 0.00 0.00
0.05 0.04 0.03 0.02 0.01 0.01 0.01 0.00 0.00 0.00 0.00 0.00 0.00 0.00 0.00 0.00 0.00 0.00 0.00 0.00 0.00 0.00 0.00 0.00 0.00 0.00 0.00 0.00 0.00 0.00 0.00 0.00 0.00 0.00 0.00 0.00 0.00 0.00 0.00 0.00 0.00 0.00 0.00 0.00
0.04 0.04 0.03 0.02 0.02 0.02 0.00 0.00 0.00 0.00 0.00 0.00 0.00 0.00 0.00 0.00 0.00 0.00 0.00 0.00 0.00 0.00 0.00 0.00 0.00 0.00 0.00 0.00 0.00 0.00 0.00 0.00 0.00 0.00 0.00 0.00 0.00 0.00 0.00 0.00 0.00 0.00 0.00 0.00
0.02 0.03 0.05 0.03 0.02 0.01 0.00 0.00 0.00 0.00 0.00 0.00 0.00 0.00 0.00 0.00 0.00 0.00 0.00 0.00 0.00 0.00 0.00 0.00 0.00 0.00 0.00 0.00 0.00 0.00 0.00 0.00 0.00 0.00 0.00 0.00 0.00 0.00 0.00 0.00 0.00 0.00 0.00 0.00
0.01 0.02 0.06 0.05 0.03 0.02 0.01 0.00 0.00 0.01 0.01 0.00 0.00 0.00 0.00 0.00 0.00 0.00 0.00 0.00 0.00 0.00 0.00 0.00 0.00 0.00 0.00 0.00 0.00 0.00 0.00 0.00 0.00 0.00 0.00 0.00 0.00 0.00 0.00 0.00 0.00 0.00 0.00 0.00
0.02 0.04 0.05 0.04 0.03 0.01 0.01 0.00 0.00 0.01 0.02 0.01 0.00 0.00 0.00 0.00 0.00 0.00 0.00 0.00 0.00 0.00 0.00 0.00 0.00 0.00 0.00 0.00 0.00 0.00 0.00 0.00 0.00 0.00 0.00 0.00 0.00 0.00 0.00 0.00 0.00 0.00 0.00 0.00
0.04 0.04 0.03 0.03 0.03 0.02 0.01 0.01 0.01 0.01 0.01 0.01 0.00 0.00 0.00 0.00 0.00 0.00 0.00 0.00 0.00 0.00 0.00 0.00 0.00 0.00 0.00 0.00 0.00 0.00 0.00 0.00 0.00 0.00 0.00 0.00 0.00 0.00 0.00 0.00 0.00 0.00 0.00 0.00
0.05 0.06 0.05 0.03 0.03 0.02 0.01 0.01 0.01 0.02 0.02 0.01 0.01 0.00 0.00 0.01 0.00 0.01 0.01 0.01 0.01 0.00 0.00 0.00 0.00 0.00 0.00 0.00 0.00 0.00 0.00 0.00 0.00 0.00 0.00 0.00 0.00 0.00 0.00 0.00 0.00 0.00 0.00 0.00
0.05 0.05 0.05 0.04 0.03 0.02 0.02 0.02 0.01 0.01 0.01 0.01 0.01 0.01 0.01 0.01 0.01 0.01 0.01 0.01 0.01 0.01 0.00 0.00 0.00 0.00 0.00 0.00 0.00 0.00 0.00 0.00 0.00 0.00 0.00 0.00 0.00 0.00 0.00 0.00 0.00 0.00 0.00 0.00
0.03 0.04 0.04 0.03 0.02 0.02 0.02 0.01 0.01 0.01 0.01 0.02 0.02 0.03 0.01 0.01 0.01 0.01 0.01 0.01 0.01 0.00 0.00 0.00 0.00 0.01 0.01 0.01 0.01 0.01 0.00 0.00 0.00 0.00 0.00 0.00 0.00 0.00 0.01 0.01 0.00 0.00 0.00 0.00
0.03 0.03 0.03 0.03 0.02 0.02 0.02 0.01 0.01 0.01 0.01 0.02 0.02 0.02 0.01 0.01 0.01 0.01 0.01 0.01 0.01 0.01 0.00 0.00 0.00 0.00 0.00 0.00 0.00 0.00 0.00 0.00 0.00 0.00 0.00 0.00 0.00 0.00 0.01 0.01 0.01 0.01 0.01 0.00
MSLP
1016.56 1016.56 1016.45 1016.24 1015.94 1015.60 1015.26 1014.97 1014.77 1014.67 1014.64 1014.66 1014.66 1014.61 1014.47 1014.23 1013.92 1013.57 1013.25 1013.02 1012.91 1012.95 1013.12 1013.41 1013.75 1014.09 1014.41 1014.67 1014.88 1015.07 1015.25 1015.48 1015.78 1016.15 1016.58 1017.05 1017.52 1017.96 1018.34 1018.65 1018.90 1019.11 1019.30 1019.49
1016.69 1016.68 1016.56 1016.34 1016.03 1015.68 1015.34 1015.05 1014.84 1014.73 1014.69 1014.68 1014.64 1014.54 1014.35 1014.05 1013.69 1013.30 1012.95 1012.69 1012.57 1012.61 1012.80 1013.11 1013.48 1013.86 1014.22 1014.51 1014.75 1014.96 1015.15 1015.37 1015.65 1015.98 1016.37 1016.79 1017.22 1017.62 1017.97 1018.27 1018.51 1018.72 1018.91 1019.10
1016.83 1016.81 1016.69 1016.47 1016.17 1015.82 1015.48 1015.19 1014.97 1014.83 1014.74 1014.68 1014.58 1014.41 1014.15 1013.80 1013.39 1012.97 1012.61 1012.34 1012.23 1012.29 1012.50 1012.84 1013.24 1013.65 1014.05 1014.38 1014.66 1014.89 1015.10 1015.32 1015.57 1015.87 1016.21 1016.58 1016.96 1017.31 1017.63 1017.90 1018.13 1018.33 1018.52 1018.71
1016.88 1016.86 1016.76 1016.56 1016.29 1015.97 1015.64 1015.36 1015.12 1014.94 1014.79 1014.64 1014.46 1014.22 1013.89 1013.48 1013.04 1012.60 1012.23 1011.98 1011.89 1011.97 1012.21 1012.58 1013.01 1013.47 1013.89 1014.27 1014.58 1014.84 1015.07 1015.29 1015.53 1015.80 1016.10 1016.42 1016.74 1017.05 1017.32 1017.57 1017.79 1017.98 1018.17 1018.36
1016.76 1016.76 1016.69 1016.54 1016.32 1016.05 1015.76 1015.48 1015.24 1015.01 1014.80 1014.56 1014.29 1013.96 1013.56 1013.10 1012.63 1012.19 1011.84 1011.62 1011.56 1011.68 1011.96 1012.35 1012.81 1013.30 1013.76 1014.16 1014.51 1014.79 1015.04 1015.27 1015.50 1015.74 1016.01 1016.29 1016.56 1016.84 1017.09 1017.32 1017.53 1017.72 1017.92 1018.11
1016.42 1016.45 1016.43 1016.34 1016.20 1016.00 1015.77 1015.53 1015.28 1015.02 1014.74 1014.44 1014.08 1013.66 1013.20 1012.70 1012.22 1011.79 1011.47 1011.29 1011.28 1011.44 1011.75 1012.17 1012.66 1013.16 1013.64 1014.07 1014.43 1014.74 1015.00 1015.24 1015.47 1015.70 1015.94 1016.19 1016.45 1016.70 1016.94 1017.16 1017.38 1017.59 1017.79 1017.99
1015.87 1015.93 1015.97 1015.97 1015.91 1015.81 1015.65 1015.46 1015.23 1014.95 1014.63 1014.26 1013.83 1013.35 1012.84 1012.33 1011.85 1011.45 1011.16 1011.04 1011.08 1011.27 1011.61 1012.06 1012.55 1013.06 1013.55 1013.98 1014.36 1014.68 1014.96 1015.21 1015.44 1015.68 1015.92 1016.16 1016.41 1016.65 1016.90 1017.14 1017.38 1017.60 1017.82 1018.03
1015.17 1015.28 1015.38 1015.46 1015.50 1015.49 1015.42 1015.29 1015.09 1014.82 1014.48 1014.06 1013.59 1013.08 1012.54 1012.02 1011.56 1011.20 1010.96 1010.89 1010.97 1011.20 1011.56 1012.02 1012.52 1013.02 1013.50 1013.94 1014.32 1014.65 1014.95 1015.21 1015.46 1015.71 1015.96 1016.21 1016.47 1016.73 1017.00 1017.26 1017.52 1017.77 1018.01 1018.22
1014.46 1014.60 1014.76 1014.91 1015.04 1015.11 1015.12 1015.05 1014.89 1014.64 1014.30 1013.88 1013.39 1012.86 1012.33 1011.82 1011.40 1011.07 1010.89 1010.85 1010.97 1011.23 1011.60 1012.06 1012.54 1013.04 1013.51 1013.94 1014.33 1014.68 1014.99 1015.28 1015.56 1015.83 1016.10 1016.38 1016.66 1016.95 1017.24 1017.52 1017.81 1018.08 1018.34 1018.56
1013.88 1014.04 1014.23 1014.43 1014.61 1014.75 1014.82 1014.81 1014.69 1014.47 1014.14 1013.73 1013.25 1012.74 1012.22 1011.75 1011.36 1011.08 1010.93 1010.93 1011.07 1011.34 1011.71 1012.15 1012.62 1013.10 1013.57 1014.00 1014.41 1014.78 1015.12 1015.45 1015.76 1016.08 1016.38 1016.69 1017.00 1017.30 1017.61 1017.92 1018.22 1018.50 1018.76 1018.98
1013.54 1013.70 1013.90 1014.11 1014.31 1014.48 1014.58 1014.59 1014.51 1014.31 1014.01 1013.62 1013.17 1012.69 1012.21 1011.77 1011.42 1011.17 1011.05 1011.07 1011.22 1011.48 1011.83 1012.26 1012.71 1013.19 1013.65 1014.11 1014.54 1014.95 1015.34 1015.72 1016.08 1016.44 1016.78 1017.12 1017.45 1017.78 1018.09 1018.40 1018.70 1018.98 1019.23 1019.44
1013.49 1013.62 1013.79 1013.97 1014.16 1014.31 1014.40 1014.42 1014.34 1014.16 1013.89 1013.54 1013.12 1012.68 1012.24 1011.84 1011.52 1011.30 1011.19 1011.21 1011.34 1011.58 1011.92 1012.32 1012.76 1013.24 1013.72 1014.21 1014.68 1015.16 1015.61 1016.05 1016.48 1016.88 1017.27 1017.63 1017.98 1018.31 1018.62 1018.92 1019.21 1019.47 1019.70 1019.89
1013.68 1013.75 1013.85 1013.98 1014.10 1014.20 1014.26 1014.25 1014.16 1013.99 1013.74 1013.42 1013.05 1012.65 1012.25 1011.89 1011.60 1011.38 1011.27 1011.27 1011.38 1011.60 1011.90 1012.28 1012.72 1013.20 1013.72 1014.25 1014.79 1015.33 1015.86 1016.38 1016.87 1017.32 1017.75 1018.14 1018.50 1018.83 1019.14 1019.42 1019.68 1019.91 1020.12 1020.29
1013.98 1013.97 1013.99 1014.03 1014.06 1014.08 1014.08 1014.02 1013.91 1013.74 1013.50 1013.21 1012.88 1012.53 1012.18 1011.85 1011.57 1011.36 1011.24 1011.22 1011.29 1011.47 1011.74 1012.10 1012.54 1013.04 1013.59 1014.18 1014.80 1015.41 1016.03 1016.62 1017.17 1017.69 1018.15 1018.57 1018.94 1019.27 1019.56 1019.83 1020.07 1020.28 1020.46 1020.62
1014.24 1014.15 1014.07 1014.01 1013.94 1013.87 1013.78 1013.67 1013.52 1013.34 1013.12 1012.87 1012.58 1012.28 1011.97 1011.67 1011.41 1011.20 1011.06 1011.01 1011.05 1011.19 1011.43 1011.77 1012.21 1012.74 1013.33 1013.97 1014.66 1015.35 1016.04 1016.70 1017.32 1017.89 1018.40 1018.84 1019.24 1019.57 1019.87 1020.13 1020.36 1020.56 1020.73 1020.88
1014.36 1014.17 1014.00 1013.82 1013.65 1013.49 1013.32 1013.16 1012.98 1012.79 1012.59 1012.37 1012.12 1011.87 1011.60 1011.34 1011.10 1010.90 1010.75 1010.67 1010.68 1010.78 1011.00 1011.33 1011.77 1012.31 1012.94 1013.63 1014.37 1015.12 1015.88 1016.60 1017.28 1017.89 1018.44 1018.93 1019.35 1019.71 1020.03 1020.30 1020.54 1020.76 1020.94 1021.10
1014.27 1014.00 1013.72 1013.45 1013.19 1012.94 1012.71 1012.49 1012.29 1012.11 1011.92 1011.74 1011.54 1011.33 1011.12 1010.89 1010.68 1010.49 1010.34 1010.25 1010.24 1010.33 1010.53 1010.85 1011.29 1011.84 1012.48 1013.21 1013.98 1014.77 1015.56 1016.33 1017.05 1017.70 1018.30 1018.82 1019.29 1019.69 1020.05 1020.37 1020.65 1020.90 1021.12 1021.30
1014.02 1013.66 1013.30 1012.95 1012.61 1012.29 1012.01 1011.76 1011.55 1011.36 1011.20 1011.05 1010.90 1010.74 1010.58 1010.40 1010.22 1010.06 1009.92 1009.84 1009.83 1009.91 1010.11 1010.43 1010.86 1011.41 1012.06 1012.78 1013.56 1014.36 1015.17 1015.95 1016.69 1017.38 1018.01 1018.58 1019.10 1019.56 1019.98 1020.36 1020.70 1021.00 1021.27 1021.49
1013.72 1013.29 1012.86 1012.44 1012.05 1011.68 1011.36 1011.08 1010.86 1010.68 1010.54 1010.42 1010.31 1010.20 1010.08 1009.95 1009.82 1009.69 1009.59 1009.53 1009.54 1009.64 1009.84 1010.16 1010.59 1011.13 1011.76 1012.47 1013.22 1014.01 1014.80 1015.57 1016.31 1017.01 1017.67 1018.28 1018.84 1019.37 1019.86 1020.31 1020.72 1021.08 1021.40 1021.67
1013.54 1013.05 1012.56 1012.09 1011.65 1011.25 1010.89 1010.60 1010.36 1010.19 1010.05 1009.95 1009.87 1009.80 1009.72 1009.64 1009.55 1009.47 1009.41 1009.40 1009.44 1009.57 1009.79 1010.11 1010.54 1011.06 1011.66 1012.33 1013.05 1013.79 1014.53 1015.27 1015.99 1016.68 1017.35 1017.99 1018.60 1019.18 1019.73 1020.24 1020.71 1021.13 1021.50 1021.81
1013.63 1013.08 1012.54 1012.03 1011.55 1011.11 1010.73 1010.41 1010.16 1009.96 1009.83 1009.73 1009.66 1009.60 1009.55 1009.51 1009.47 1009.44 1009.44 1009.47 1009.57 1009.73 1009.98 1010.32 1010.74 1011.24 1011.81 1012.43 1013.08 1013.75 1014.44 1015.12 1015.80 1016.46 1017.12 1017.76 1018.39 1019.01 1019.60 1020.16 1020.67 1021.13 1021.53 1021.87
1014.04 1013.44 1012.86 1012.31 1011.79 1011.32 1010.91 1010.56 1010.27 1010.05 1009.89 1009.77 1009.69 1009.64 1009.60 1009.59 1009.58 1009.60 1009.66 1009.75 1009.90 1010.11 1010.39 1010.75 1011.16 1011.64 1012.16 1012.72 1013.30 1013.90 1014.51 1015.12 1015.74 1016.36 1016.98 1017.61 1018.24 1018.86 1019.46 1020.03 1020.56 1021.04 1021.45 1021.80
1014.74 1014.11 1013.49 1012.90 1012.34 1011.83 1011.38 1010.99 1010.67 1010.41 1010.20 1010.06 1009.95 1009.88 1009.85 1009.85 1009.87 1009.93 1010.04 1010.18 1010.38 1010.64 1010.95 1011.32 1011.73 1012.17 1012.65 1013.15 1013.66 1014.18 1014.70 1015.24 1015.78 1016.34 1016.92 1017.51 1018.10 1018.70 1019.29 1019.85 1020.37 1020.84 1021.24 1021.58
1015.62 1014.96 1014.30 1013.67 1013.08 1012.54 1012.04 1011.61 1011.24 1010.93 1010.68 1010.49 1010.36 1010.27 1010.22 1010.23 1010.27 1010.37 1010.51 1010.70 1010.94 1011.23 1011.56 1011.93 1012.33 1012.74 1013.17 1013.60 1014.04 1014.48 1014.92 1015.38 1015.85 1016.35 1016.87 1017.40 1017.96 1018.51 1019.06 1019.59 1020.07 1020.51 1020.89 1021.21
1016.50 1015.80 1015.12 1014.46 1013.84 1013.26 1012.73 1012.26 1011.85 1011.50 1011.21 1010.98 1010.81 1010.70 1010.65 1010.66 1010.72 1010.84 1011.01 1011.23 1011.50 1011.80 1012.14 1012.50 1012.87 1013.24 1013.61 1013.98 1014.35 1014.71 1015.08 1015.47 1015.88 1016.31 1016.77 1017.25 1017.75 1018.26 1018.76 1019.23 1019.67 1020.06 1020.41 1020.71
1017.19 1016.48 1015.77 1015.09 1014.44 1013.84 1013.29 1012.79 1012.35 1011.97 1011.66 1011.42 1011.23 1011.12 1011.07 1011.08 1011.16 1011.30 1011.49 1011.72 1012.00 1012.30 1012.62 1012.95 1013.28 1013.60 1013.91 1014.21 1014.50 1014.80 1015.11 1015.43 1015.78 1016.16 1016.57 1017.01 1017.46 1017.92 1018.37 1018.80 1019.19 1019.54 1019.85 1020.13
Thickness
5470 5478 5486 5498 5508 5519 5527 5535 5541 5552 5560 5565 5573 5582 5592 5601 5607 5616 5625 5632 5639 5645 5652 5655 5659 5664 5668 5672 5674 5677 5678 5679 5679 5678 5677 5676 5677 5678 5678 5678 5678 5677 5677 5676
5469 5475 5484 5492 5501 5509 5517 5525 5534 5541 5550 5558 5567 5575 5587 5595 5603 5612 5620 5627 5634 5639 5644 5647 5651 5656 5661 5665 5667 5669 5671 5672 5673 5673 5673 5673 5673 5672 5672 5672 5671 5671 5671 5670
5470 5475 5481 5488 5495 5503 5512 5520 5529 5536 5542 5550 5557 5567 5581 5593 5600 5607 5614 5622 5630 5634 5638 5643 5645 5648 5653 5656 5659 5661 5664 5665 5666 5666 5666 5665 5664 5664 5664 5665 5665 5665 5665 5664
5469 5474 5480 5488 5493 5501 5509 5516 5523 5529 5534 5543 5551 5564 5585 5592 5596 5604 5612 5618 5625 5629 5633 5636 5639 5641 5644 5648 5650 5653 5655 5656 5657 5658 5659 5660 5659 5659 5660 5660 5659 5658 5657 5657
5470 5474 5480 5486 5493 5499 5505 5511 5518 5524 5531 5537 5547 5555 5583 5586 5592 5604 5613 5618 5621 5625 5627 5629 5631 5634 5636 5637 5640 5643 5645 5647 5649 5650 5652 5652 5653 5654 5652 5651 5650 5650 5649 5648
5472 5475 5480 5487 5492 5496 5499 5506 5511 5518 5523 5528 5549 5552 5575 5588 5597 5605 5611 5615 5617 5620 5622 5623 5624 5624 5626 5628 5630 5633 5635 5637 5639 5640 5642 5643 5644 5643 5643 5642 5642 5642 5641 5640
5473 5477 5480 5484 5488 5490 5496 5502 5507 5510 5516 5535 5548 5550 5573 5592 5596 5600 5605 5609 5612 5613 5615 5617 5616 5616 5618 5620 5621 5623 5625 5627 5628 5630 5631 5633 5634 5634 5633 5633 5633 5632 5632 5631
5477 5481 5482 5485 5493 5494 5496 5503 5514 5522 5529 5539 5535 5549 5576 5587 5588 5590 5594 5599 5602 5606 5608 5610 5611 5610 5611 5612 5613 5614 5616 5616 5617 5619 5620 5621 5621 5621 5622 5622 5622 5622 5622 5621
5486 5485 5483 5485 5491 5495 5494 5501 5510 5516 5523 5531 5543 5554 5570 5578 5581 5584 5588 5591 5595 5599 5601 5603 5603 5603 5604 5604 5604 5606 5606 5606 5606 5607 5608 5609 5609 5609 5610 5610 5610 5610 5609 5609
5484 5482 5483 5484 5487 5489 5496 5502 5503 5509 5517 5531 5544 5553 5569 5575 5580 5583 5585 5588 5590 5590 5592 5594 5594 5594 5594 5595 5594 5595 5595 5596 5595 5595 5596 5596 5597 5597 5597 5597 5597 5597 5597 5597
5480 5483 5482 5483 5487 5492 5491 5495 5505 5513 5518 5529 5541 5558 5567 5570 5574 5577 5580 5582 5583 5583 5585 5585 5585 5585 5584 5584 5584 5584 5584 5584 5583 5583 5584 5584 5584 5584 5584 5584 5584 5584 5584 5584
5482 5485 5487 5488 5491 5495 5498 5503 5507 5509 5512 5522 5535 5552 5559 5561 5564 5566 5571 5572 5574 5575 5576 5577 5576 5575 5575 5574 5574 5574 5574 5573 5572 5571 5571 5571 5571 5571 5571 5571 5571 5571 5571 5571
5483 5483 5487 5489 5487 5487 5492 5500 5505 5509 5512 5517 5526 5546 5552 5553 5556 5559 5562 5565 5567 5567 5567 5568 5568 5567 5567 5566 5565 5564 5563 5562 5561 5560 5560 5559 5558 5558 5558 5558 5557 5557 5558 5558
5482 5484 5491 5502 5505 5499 5496 5498 5500 5500 5506 5518 5528 5541 5548 5550 5553 5555 5557 5559 5561 5561 5561 5561 5561 5561 5560 5558 5557 5555 5554 5551 5549 5548 5548 5547 5546 5545 5545 5544 5544 5544 5544 5545
5479 5482 5488 5494 5496 5495 5499 5501 5501 5501 5511 5516 5530 5533 5543 5546 5549 5552 5553 5554 5555 5555 5555 5556 5556 5556 5553 5551 5548 5546 5544 5541 5539 5538 5536 5535 5533 5532 5531 5531 5531 5531 5531 5531
5472 5476 5482 5489 5494 5493 5495 5500 5502 5505 5509 5515 5520 5529 5540 5541 5542 5545 5548 5549 5551 5552 5552 5552 5551 5551 5548 5546 5542 5538 5535 5532 5529 5527 5525 5523 5521 5520 5520 5519 5519 5519 5518 5518
5467 5472 5479 5491 5490 5491 5498 5505 5504 5507 5512 5515 5519 5530 5535 5535 5537 5542 5545 5547 5549 5551 5551 5550 5549 5547 5544 5541 5537 5533 5528 5523 5520 5518 5515 5513 5511 5510 5509 5508 5507 5507 5506 5506
5462 5468 5476 5484 5485 5486 5507 5506 5507 5508 5513 5515 5519 5526 5530 5533 5536 5539 5542 5544 5547 5548 5548 5547 5545 5543 5540 5535 5530 5526 5520 5516 5512 5509 5506 5504 5502 5500 5499 5497 5496 5495 5495 5494
5459 5464 5472 5479 5485 5495 5502 5501 5500 5503 5510 5514 5516 5521 5524 5526 5529 5536 5538 5540 5542 5544 5544 5543 5541 5538 5533 5528 5523 5517 5512 5508 5505 5502 5499 5496 5494 5491 5489 5487 5486 5484 5483 5482
5454 5458 5465 5474 5480 5488 5499 5497 5496 5499 5508 5512 5511 5515 5518 5518 5527 5535 5531 5532 5533 5533 5533 5532 5531 5528 5524 5520 5514 5510 5506 5503 5500 5496 5493 5489 5486 5483 5480 5478 5476 5474 5473 5471
5455 5457 5462 5471 5477 5489 5491 5489 5490 5496 5503 5504 5505 5509 5511 5515 5521 5521 5519 5520 5521 5521 5521 5521 5520 5518 5515 5511 5506 5504 5501 5498 5494 5489 5484 5481 5478 5475 5472 5469 5467 5465 5463 5461
5452 5459 5464 5469 5473 5479 5479 5481 5486 5490 5493 5496 5499 5502 5505 5507 5507 5507 5507 5507 5508 5509 5508 5509 5509 5507 5504 5501 5498 5496 5493 5490 5485 5481 5477 5473 5470 5467 5464 5461 5458 5456 5454 5453
5444 5448 5453 5461 5469 5468 5468 5471 5474 5477 5482 5487 5491 5494 5496 5498 5499 5498 5498 5497 5497 5497 5497 5497 5497 5495 5492 5490 5490 5488 5484 5480 5476 5473 5470 5466 5463 5460 5457 5454 5451 5449 5447 5446
5438 5437 5441 5448 5460 5462 5463 5465 5466 5469 5473 5477 5480 5483 5487 5490 5490 5490 5489 5488 5487 5486 5487 5486 5486 5485 5483 5481 5480 5479 5476 5472 5470 5467 5463 5460 5456 5453 5450 5447 5446 5444 5442 5441
5427 5429 5434 5442 5450 5455 5460 5459 5460 5462 5465 5468 5470 5473 5476 5480 5480 5480 5480 5478 5478 5477 5476 5476 5477 5477 5477 5474 5473 5471 5468 5466 5463 5460 5457 5454 5450 5448 5445 5442 5441 5440 5439 5438
5419 5423 5428 5437 5440 5441 5449 5450 5453 5455 5458 5460 5462 5465 5466 5469 5471 5471 5470 5469 5469 5468 5468 5468 5469 5469 5469 5467 5466 5464 5462 5459 5457 5454 5451 5448 5445 5443 5440 5437 5435 5433 5432 5431